Temp
-2 -3 -4 -5 -5 -6 -6 -6 -6 -6 -7 -8 -8 -8 -9 -9 -10 -10 -10 -10 -10 -10 -9 -9 -9 -9 -9 -9 -9 -10 -10 -10 -10 -10 -10 -11 -11 -11 -11 -11 -11 -12 -12 -12 -11 -12 -12 -12 -12 -12 -12 -12 -11 -11 -11 -11 -11 -10 -10 -11 -11 -11 -11
-3 -3 -4 -5 -5 -6 -6 -6 -6 -6 -7 -8 -8 -9 -9 -10 -10 -10 -10 -10 -10 -10 -10 -10 -9 -9 -9 -9 -9 -10 -10 -10 -10 -11 -11 -11 -11 -11 -11 -11 -11 -12 -12 -12 -12 -12 -12 -12 -12 -12 -12 -12 -11 -11 -11 -11 -10 -10 -10 -10 -10 -10 -11
-3 -4 -4 -5 -6 -6 -6 -6 -6 -7 -7 -8 -8 -9 -9 -10 -10 -10 -10 -10 -10 -10 -10 -10 -10 -9 -9 -9 -10 -10 -10 -10 -11 -11 -11 -11 -11 -11 -11 -11 -12 -12 -13 -13 -13 -13 -13 -13 -13 -12 -12 -12 -11 -11 -11 -10 -10 -10 -10 -10 -10 -10 -11
-4 -4 -5 -6 -7 -6 -6 -6 -7 -7 -7 -8 -8 -9 -9 -10 -10 -10 -10 -10 -10 -10 -10 -10 -10 -10 -10 -10 -10 -10 -10 -11 -11 -11 -11 -11 -11 -11 -11 -12 -12 -13 -13 -13 -13 -13 -13 -13 -12 -12 -12 -11 -11 -11 -10 -10 -10 -10 -10 -10 -11 -11 -11
-5 -5 -5 -6 -7 -7 -7 -7 -7 -7 -7 -8 -8 -9 -9 -9 -10 -10 -10 -10 -10 -10 -10 -10 -10 -10 -10 -10 -10 -10 -11 -11 -11 -11 -11 -10 -11 -11 -12 -12 -12 -13 -13 -13 -13 -13 -13 -13 -12 -12 -11 -11 -11 -10 -10 -10 -11 -11 -11 -11 -11 -11 -11
-5 -5 -6 -7 -7 -7 -7 -7 -7 -7 -8 -8 -8 -9 -9 -9 -10 -10 -10 -10 -10 -10 -10 -10 -10 -10 -10 -10 -10 -10 -11 -11 -11 -11 -11 -11 -11 -12 -12 -12 -12 -13 -13 -13 -13 -13 -13 -12 -12 -11 -11 -11 -11 -11 -11 -11 -11 -11 -11 -11 -11 -11 -11
-6 -6 -6 -7 -7 -7 -8 -8 -7 -8 -8 -8 -8 -9 -9 -9 -10 -10 -10 -10 -10 -10 -10 -10 -10 -10 -10 -10 -11 -11 -11 -11 -11 -11 -11 -11 -11 -11 -12 -12 -12 -12 -13 -13 -13 -13 -12 -12 -12 -11 -11 -11 -11 -12 -11 -11 -11 -11 -11 -11 -12 -12 -11
-5 -6 -6 -7 -8 -8 -8 -8 -8 -8 -8 -8 -9 -9 -9 -9 -10 -10 -10 -10 -10 -10 -10 -10 -10 -10 -10 -10 -11 -11 -11 -11 -11 -11 -11 -11 -11 -11 -12 -12 -12 -12 -13 -13 -13 -12 -12 -12 -11 -11 -11 -11 -12 -12 -12 -11 -11 -12 -12 -12 -13 -13 -12
-6 -6 -7 -7 -8 -8 -8 -8 -8 -8 -8 -9 -9 -9 -9 -9 -9 -10 -10 -10 -10 -10 -10 -10 -10 -10 -10 -11 -11 -11 -10 -10 -10 -10 -10 -10 -11 -11 -12 -12 -12 -13 -13 -13 -12 -12 -12 -11 -11 -11 -11 -12 -12 -12 -12 -12 -12 -12 -12 -13 -13 -13 -13
-6 -6 -7 -7 -8 -8 -8 -8 -8 -8 -8 -9 -9 -9 -9 -9 -9 -10 -10 -10 -10 -10 -10 -10 -11 -11 -11 -11 -11 -10 -10 -10 -9 -10 -10 -10 -10 -11 -12 -12 -12 -13 -12 -12 -12 -12 -11 -11 -11 -12 -12 -13 -13 -13 -13 -13 -13 -13 -13 -13 -13 -13 -13
-6 -7 -7 -7 -8 -8 -8 -9 -8 -9 -9 -9 -9 -9 -9 -9 -9 -9 -10 -10 -10 -10 -11 -11 -11 -11 -11 -11 -11 -10 -10 -10 -10 -10 -10 -10 -10 -11 -11 -11 -12 -12 -12 -12 -12 -12 -12 -12 -12 -13 -14 -14 -14 -14 -14 -13 -13 -13 -13 -13 -14 -14 -13
-7 -7 -7 -8 -8 -8 -8 -9 -9 -9 -9 -8 -8 -8 -9 -9 -9 -9 -10 -10 -10 -10 -11 -11 -11 -11 -11 -11 -11 -10 -10 -11 -11 -11 -11 -11 -11 -11 -11 -11 -11 -12 -12 -12 -12 -12 -13 -13 -14 -14 -14 -14 -14 -14 -14 -13 -13 -13 -13 -13 -14 -14 -14
-7 -7 -8 -8 -8 -8 -8 -9 -9 -9 -8 -8 -8 -8 -8 -9 -9 -10 -10 -10 -10 -11 -11 -11 -11 -11 -11 -11 -11 -11 -11 -11 -11 -11 -11 -11 -12 -12 -12 -12 -12 -12 -12 -12 -12 -13 -14 -14 -15 -15 -15 -14 -14 -14 -14 -14 -13 -13 -13 -13 -13 -14 -13
-7 -7 -8 -8 -8 -8 -9 -9 -9 -9 -8 -8 -8 -7 -8 -8 -9 -10 -10 -10 -10 -11 -11 -11 -11 -11 -11 -11 -11 -11 -11 -11 -11 -12 -12 -12 -12 -12 -13 -13 -13 -13 -12 -13 -13 -14 -15 -15 -15 -15 -14 -14 -14 -14 -13 -13 -13 -14 -14 -14 -14 -14 -14
-7 -7 -8 -8 -8 -8 -9 -9 -9 -9 -8 -8 -8 -7 -7 -7 -9 -9 -9 -10 -10 -10 -11 -11 -11 -11 -11 -11 -11 -11 -11 -11 -12 -12 -12 -12 -12 -12 -13 -13 -13 -13 -13 -14 -14 -14 -14 -14 -14 -14 -14 -14 -14 -14 -13 -14 -14 -15 -16 -16 -16 -16 -16
-7 -7 -8 -8 -8 -9 -9 -9 -9 -8 -8 -8 -8 -7 -7 -7 -8 -9 -9 -10 -10 -10 -10 -11 -11 -11 -11 -11 -11 -11 -11 -12 -12 -12 -12 -12 -12 -13 -13 -13 -13 -13 -14 -14 -14 -13 -13 -13 -14 -14 -14 -14 -14 -14 -14 -15 -15 -16 -17 -17 -17 -17 -16
-7 -7 -8 -8 -8 -9 -9 -9 -9 -8 -8 -8 -8 -7 -7 -7 -8 -8 -9 -10 -10 -10 -10 -10 -11 -11 -11 -11 -11 -11 -12 -12 -12 -12 -12 -12 -12 -12 -12 -13 -13 -14 -14 -14 -14 -14 -15 -15 -16 -16 -16 -16 -16 -16 -15 -16 -16 -17 -18 -19 -19 -18 -17
-7 -7 -8 -8 -8 -9 -9 -9 -9 -8 -8 -8 -8 -7 -7 -7 -8 -8 -9 -9 -10 -10 -10 -10 -11 -11 -11 -11 -11 -12 -12 -12 -11 -12 -12 -12 -12 -13 -13 -13 -14 -14 -15 -15 -15 -16 -16 -16 -16 -17 -17 -18 -18 -17 -16 -17 -18 -18 -19 -19 -19 -19 -18
-7 -8 -8 -8 -8 -8 -9 -9 -9 -9 -8 -8 -7 -7 -7 -8 -8 -8 -9 -9 -10 -10 -10 -10 -11 -11 -11 -11 -11 -12 -12 -12 -12 -12 -12 -12 -13 -13 -14 -14 -14 -15 -16 -16 -16 -17 -17 -16 -17 -17 -18 -19 -19 -18 -18 -18 -18 -19 -19 -19 -20 -19 -19
-7 -8 -8 -8 -8 -9 -9 -9 -9 -9 -8 -8 -7 -7 -7 -8 -8 -9 -9 -10 -10 -10 -10 -11 -11 -11 -11 -11 -12 -12 -12 -12 -12 -12 -12 -13 -14 -14 -14 -14 -15 -15 -16 -17 -17 -17 -17 -17 -18 -19 -19 -19 -19 -19 -19 -19 -19 -19 -19 -19 -20 -20 -20
-8 -8 -8 -8 -9 -9 -9 -9 -9 -9 -9 -8 -8 -7 -7 -7 -8 -8 -9 -10 -10 -10 -11 -11 -11 -11 -11 -12 -12 -13 -13 -12 -12 -12 -13 -14 -14 -14 -14 -15 -15 -16 -17 -17 -18 -18 -18 -18 -19 -20 -20 -20 -20 -20 -19 -19 -19 -19 -19 -19 -20 -20 -20
-8 -8 -8 -9 -9 -9 -9 -9 -9 -9 -9 -8 -8 -7 -7 -7 -8 -8 -9 -10 -10 -10 -10 -11 -11 -11 -12 -12 -13 -13 -12 -12 -12 -13 -14 -14 -14 -14 -15 -16 -17 -17 -18 -18 -18 -19 -20 -20 -20 -20 -21 -21 -20 -20 -19 -19 -19 -19 -19 -19 -19 -20 -20
-8 -8 -9 -9 -9 -9 -9 -9 -9 -9 -9 -9 -8 -7 -7 -7 -7 -8 -9 -9 -10 -10 -10 -10 -11 -12 -12 -13 -13 -13 -12 -13 -13 -14 -15 -14 -15 -16 -17 -17 -18 -18 -19 -19 -20 -21 -21 -21 -21 -21 -21 -21 -20 -20 -19 -19 -19 -19 -19 -19 -19 -19 -19
-8 -9 -9 -9 -9 -9 -9 -9 -9 -9 -9 -9 -8 -8 -7 -7 -7 -8 -9 -9 -9 -9 -10 -11 -11 -12 -13 -13 -13 -13 -13 -14 -15 -15 -15 -15 -16 -17 -17 -18 -18 -19 -20 -20 -21 -21 -22 -21 -21 -21 -21 -21 -20 -20 -19 -19 -19 -19 -18 -18 -18 -18 -18
-8 -9 -9 -9 -9 -9 -9 -9 -9 -9 -9 -9 -9 -8 -8 -7 -7 -8 -9 -9 -9 -9 -10 -11 -12 -13 -13 -13 -13 -14 -14 -15 -15 -16 -16 -17 -18 -18 -18 -18 -19 -20 -20 -21 -21 -22 -22 -22 -21 -21 -21 -21 -20 -20 -20 -19 -19 -19 -18 -18 -17 -17 -17
-8 -9 -9 -9 -9 -9 -9 -10 -10 -10 -9 -9 -9 -9 -8 -7 -7 -8 -8 -9 -9 -10 -11 -11 -12 -13 -13 -14 -15 -15 -15 -16 -16 -17 -17 -18 -18 -18 -18 -19 -20 -21 -21 -21 -22 -22 -22 -22 -21 -21 -21 -20 -20 -20 -20 -20 -19 -19 -18 -18 -17 -17 -17
-8 -9 -9 -9 -9 -9 -10 -10 -10 -10 -10 -10 -9 -9 -9 -8 -8 -7 -8 -9 -10 -11 -11 -12 -13 -14 -14 -15 -16 -16 -16 -16 -17 -17 -17 -18 -18 -18 -18 -19 -20 -20 -21 -21 -22 -22 -22 -22 -21 -21 -21 -20 -20 -20 -20 -20 -19 -19 -19 -18 -18 -17 -17
-8 -9 -9 -9 -9 -9 -10 -10 -10 -11 -10 -10 -10 -9 -9 -9 -9 -8 -8 -9 -10 -11 -12 -12 -13 -14 -15 -15 -16 -16 -17 -17 -17 -17 -17 -18 -18 -18 -19 -19 -19 -19 -20 -21 -21 -22 -22 -22 -22 -22 -21 -21 -21 -21 -20 -20 -20 -19 -19 -19 -18 -18 -18
-8 -8 -9 -9 -9 -9 -10 -10 -10 -10 -10 -10 -10 -10 -10 -9 -9 -9 -9 -10 -10 -11 -12 -13 -14 -15 -16 -16 -16 -17 -17 -17 -17 -17 -18 -18 -18 -18 -19 -19 -19 -19 -20 -20 -21 -22 -22 -22 -22 -22 -22 -22 -22 -21 -21 -20 -20 -20 -19 -19 -18 -18 -18
-7 -8 -8 -9 -9 -9 -9 -9 -9 -10 -10 -10 -10 -10 -10 -10 -9 -9 -10 -10 -11 -11 -13 -14 -15 -16 -16 -16 -17 -17 -17 -17 -17 -17 -18 -18 -19 -19 -19 -19 -19 -20 -20 -20 -21 -22 -22 -23 -23 -22 -22 -22 -22 -22 -21 -21 -21 -20 -20 -19 -19 -19 -19
-7 -7 -8 -8 -9 -9 -9 -9 -9 -10 -10 -10 -10 -10 -10 -10 -10 -10 -10 -11 -11 -12 -13 -14 -15 -16 -17 -17 -17 -17 -17 -17 -17 -18 -18 -19 -19 -19 -19 -19 -20 -20 -20 -20 -21 -22 -22 -23 -23 -23 -23 -23 -23 -22 -22 -22 -21 -21 -20 -20 -19 -19 -19
-7 -7 -7 -8 -9 -9 -9 -9 -9 -9 -9 -9 -9 -9 -9 -10 -10 -10 -10 -11 -11 -12 -14 -14 -15 -17 -17 -17 -17 -17 -17 -17 -17 -18 -18 -19 -19 -19 -19 -19 -20 -20 -19 -20 -21 -22 -22 -23 -23 -23 -23 -23 -23 -23 -23 -22 -22 -22 -21 -20 -20 -20 -19
-7 -7 -7 -7 -8 -9 -9 -9 -9 -9 -9 -9 -9 -9 -9 -9 -10 -10 -10 -11 -12 -13 -15 -15 -16 -16 -17 -17 -17 -17 -17 -17 -18 -18 -19 -19 -19 -19 -19 -20 -20 -19 -19 -19 -21 -22 -22 -22 -23 -23 -23 -23 -23 -23 -23 -23 -23 -22 -22 -21 -21 -20 -20
-8 -8 -7 -7 -7 -8 -9 -9 -9 -9 -9 -9 -9 -9 -9 -9 -9 -9 -10 -11 -12 -13 -15 -16 -16 -16 -16 -17 -17 -16 -16 -17 -18 -18 -19 -19 -19 -19 -19 -19 -19 -19 -18 -19 -20 -21 -22 -22 -22 -22 -23 -23 -23 -23 -23 -23 -23 -23 -22 -22 -22 -21 -21
-9 -9 -8 -7 -7 -7 -8 -9 -9 -9 -8 -8 -8 -8 -8 -9 -9 -10 -10 -12 -13 -14 -14 -15 -16 -16 -16 -16 -16 -16 -16 -17 -17 -18 -18 -19 -19 -19 -19 -19 -19 -19 -19 -19 -20 -21 -22 -22 -22 -22 -22 -23 -23 -23 -24 -24 -24 -23 -23 -23 -22 -22 -21
-10 -10 -9 -8 -7 -7 -8 -8 -9 -8 -8 -8 -8 -8 -8 -9 -10 -10 -12 -14 -15 -14 -14 -15 -15 -14 -15 -16 -15 -15 -16 -17 -17 -18 -18 -19 -19 -19 -18 -18 -19 -19 -18 -19 -20 -20 -21 -22 -22 -22 -22 -22 -23 -23 -24 -24 -24 -23 -23 -23 -23 -22 -22
Height
684 686 689 692 695 697 699 701 704 706 707 709 710 710 711 713 714 714 714 716 718 720 721 722 722 722 723 724 724 724 724 724 724 722 722 721 719 718 718 716 714 709 697 693 694 691 686 685 683 679 676 674 670 667 666 663 659 655 651 647 643 640 639
680 683 685 688 691 693 696 698 700 702 704 706 707 707 708 709 711 711 711 713 715 716 718 718 719 719 720 721 721 721 721 721 721 720 718 718 717 715 715 714 711 708 701 692 690 690 685 682 682 676 673 672 668 664 662 658 655 652 648 644 641 637 634
677 679 682 684 687 689 692 694 696 698 700 702 704 704 705 706 707 708 707 709 710 712 714 715 715 716 716 718 718 718 718 718 717 717 716 714 714 712 710 710 708 705 702 695 689 688 684 680 679 675 670 669 667 662 659 655 652 649 645 641 638 634 631
673 676 678 680 683 685 687 690 692 694 696 698 701 702 702 703 704 704 704 704 706 708 710 711 711 712 713 715 715 714 715 715 714 714 713 711 710 709 706 705 705 702 700 696 690 686 684 680 676 673 669 666 663 660 657 654 650 646 643 639 636 632 628
671 673 675 676 679 681 683 686 688 691 692 695 697 699 700 701 701 701 701 701 702 704 706 707 707 708 710 711 712 712 711 712 711 711 710 708 706 705 703 701 701 699 698 696 690 684 681 679 675 670 667 664 661 657 654 651 648 644 640 636 633 630 626
668 670 671 673 675 678 680 683 685 688 689 690 693 696 697 699 699 699 698 698 699 700 702 703 704 705 706 707 708 708 709 708 708 708 706 705 703 701 700 699 697 696 694 692 689 684 679 676 672 668 664 662 660 656 651 647 643 641 638 634 630 627 624
665 666 668 670 672 674 676 679 681 684 686 687 689 691 693 695 696 696 696 696 696 698 699 700 701 702 702 703 704 705 706 706 705 704 702 701 700 698 697 696 694 693 691 689 686 682 678 673 670 666 661 659 658 655 651 646 641 636 635 633 630 626 622
661 663 665 666 668 670 673 675 677 680 683 684 685 686 688 690 692 693 693 693 694 695 697 697 698 699 699 700 701 702 702 702 702 701 699 698 697 695 694 693 691 690 688 687 684 679 676 671 667 663 659 657 656 652 649 646 642 636 632 630 628 625 621
658 660 662 663 665 667 669 671 673 675 677 680 682 684 684 685 687 689 690 691 692 692 694 695 695 696 696 697 698 698 699 699 698 696 695 694 693 692 691 690 689 688 686 684 681 676 673 669 664 661 658 655 653 650 646 644 642 636 631 629 625 622 621
655 657 658 660 661 663 665 666 668 670 673 676 678 680 682 682 683 685 686 687 689 689 690 692 692 693 694 694 695 695 695 695 694 693 692 691 691 689 688 687 686 684 683 681 677 673 669 666 661 659 657 653 651 649 645 642 639 634 630 627 622 617 616
651 653 655 656 658 659 661 662 664 667 670 673 675 676 678 678 679 681 682 684 685 686 687 688 689 690 691 691 692 692 692 692 691 691 690 689 688 687 686 685 683 681 679 677 674 669 666 663 659 657 656 652 649 647 644 640 637 632 628 625 621 614 610
648 649 651 653 654 655 657 658 661 664 666 669 671 673 674 675 675 677 678 680 681 682 684 685 686 687 688 688 688 688 689 688 688 688 687 686 685 684 683 682 681 678 676 674 671 666 663 661 657 655 653 650 648 644 640 637 633 630 625 621 618 613 607
644 646 647 649 650 652 653 655 657 660 663 666 668 670 671 671 672 673 674 676 678 679 681 682 683 685 685 685 685 685 686 686 685 684 684 683 682 681 680 679 678 676 674 671 668 664 661 658 656 653 648 647 645 641 636 632 629 625 622 617 615 611 606
640 642 643 645 646 648 650 652 654 657 660 662 664 666 668 669 669 670 671 673 675 676 678 679 680 681 682 682 682 682 683 682 682 681 680 679 678 677 676 675 673 672 670 668 666 663 658 655 653 649 644 642 642 639 633 629 624 621 619 615 612 610 606
636 638 639 641 642 644 646 648 650 653 656 659 661 663 665 666 666 667 668 669 671 673 674 676 677 678 679 679 679 680 680 679 678 677 676 675 674 673 672 671 669 668 667 665 662 659 655 651 649 646 642 640 639 636 631 627 623 620 617 613 609 606 604
632 634 635 637 639 641 643 644 647 650 652 655 658 659 661 663 663 664 665 666 668 670 672 673 675 676 676 676 676 677 677 677 676 674 673 672 671 670 668 666 665 665 663 661 658 656 652 649 646 643 640 637 635 632 628 624 620 617 615 612 608 604 601
628 629 631 634 635 637 639 640 643 646 649 651 654 656 658 659 660 661 662 663 665 667 669 670 672 673 674 674 674 674 674 674 673 672 671 670 669 667 664 662 661 660 659 657 655 652 649 645 642 639 637 634 632 629 626 622 617 615 614 613 609 604 600
623 625 627 630 631 633 635 636 639 642 645 648 650 652 654 656 657 659 660 661 663 664 666 668 669 671 672 672 672 672 672 672 671 669 669 668 666 664 661 659 657 656 654 652 650 648 644 641 638 635 632 630 628 626 624 621 616 613 613 612 609 605 600
619 621 624 625 627 630 632 633 636 639 642 644 646 649 651 652 654 656 657 659 660 662 664 665 667 669 670 670 670 670 670 669 668 667 666 665 664 662 659 657 655 653 650 648 645 642 639 636 634 632 629 627 625 623 621 618 615 613 611 609 607 605 602
616 618 620 622 624 626 629 630 632 635 638 641 642 644 647 649 650 652 654 656 658 660 661 663 664 666 667 668 668 668 668 667 666 665 664 663 662 660 658 655 653 651 649 645 641 638 635 633 631 629 626 624 621 619 617 615 613 611 608 606 604 602 601
613 615 617 619 620 623 625 627 629 632 635 637 639 641 643 644 646 649 651 653 655 657 659 660 662 664 665 666 666 666 666 665 664 663 662 661 660 659 656 654 651 649 647 644 640 636 633 631 629 626 624 621 619 616 614 612 610 607 605 603 601 598 598
611 613 615 617 618 619 621 624 626 629 631 634 635 637 639 641 643 645 648 650 653 655 656 658 660 662 663 664 664 664 664 663 662 661 660 659 659 657 655 652 650 647 645 642 639 635 632 630 628 625 622 619 616 613 611 608 606 603 601 599 596 594 593
609 611 613 614 616 617 619 621 623 626 628 631 633 634 636 638 640 642 645 647 649 652 654 656 658 660 661 662 663 662 662 661 660 659 659 658 657 655 653 651 648 646 644 641 638 635 633 631 628 625 621 618 614 611 608 605 602 599 597 594 591 589 588
607 609 610 612 613 614 616 618 621 623 626 628 630 632 634 635 638 640 641 644 646 649 652 654 656 658 659 660 661 661 659 659 658 658 658 657 655 653 651 649 647 645 643 639 637 636 634 632 628 625 621 617 613 610 606 603 600 596 594 591 588 585 583
604 606 607 609 610 612 614 616 618 620 623 626 628 630 632 634 636 637 639 641 644 647 650 652 654 656 657 658 659 658 657 657 657 657 656 655 653 651 649 648 646 644 641 639 638 637 635 632 628 624 621 617 613 609 605 601 598 594 591 588 585 582 580
602 603 605 606 608 610 612 614 615 617 620 623 626 628 630 632 634 636 638 640 642 645 648 651 653 654 655 657 657 656 655 655 655 655 655 653 652 650 649 647 645 643 641 640 639 638 635 632 628 624 620 616 612 609 605 601 597 593 590 587 584 581 579
599 600 602 603 605 607 609 611 613 616 618 621 624 626 627 629 631 634 636 638 640 644 647 649 651 652 654 655 655 654 654 654 654 654 653 652 651 650 648 647 645 643 642 640 640 638 635 632 628 623 619 615 612 608 605 602 599 595 591 588 584 582 579
595 597 598 600 602 605 607 609 611 613 615 618 620 623 625 627 629 631 634 636 638 642 645 647 649 650 652 653 653 653 654 653 653 653 653 652 651 649 648 646 645 643 642 641 640 638 635 632 628 624 619 615 612 609 606 603 600 597 593 589 586 583 581
591 592 594 596 598 601 603 606 607 608 610 613 616 619 621 624 626 628 631 633 637 640 643 645 647 648 650 651 652 653 653 653 653 653 652 651 650 649 647 646 644 643 641 641 640 638 635 632 628 624 620 617 613 610 607 604 602 599 595 591 588 585 583
588 589 591 593 594 596 599 601 603 605 608 611 614 617 620 622 624 626 629 632 635 638 641 643 645 647 649 650 651 652 652 652 652 652 652 651 650 648 647 646 645 643 642 640 640 638 636 633 629 625 621 618 615 612 609 606 603 600 597 593 590 587 585
586 587 588 590 591 594 596 598 601 604 607 609 612 615 618 620 623 625 628 631 633 636 639 641 643 645 647 649 650 651 651 651 651 652 652 651 649 648 647 646 645 643 642 640 640 639 637 634 630 626 622 619 617 614 611 608 605 602 599 596 593 590 587
584 585 586 588 589 591 594 597 599 602 604 607 609 612 615 618 621 624 627 629 631 634 637 639 641 643 646 647 649 649 649 650 651 651 651 651 649 647 647 646 645 644 642 641 640 639 637 634 631 627 624 621 618 616 613 610 607 604 601 599 595 593 590
582 583 584 586 587 589 591 594 597 599 602 604 607 610 613 616 619 622 625 627 629 632 635 637 639 641 644 646 647 648 648 649 650 651 651 650 649 648 647 647 647 645 643 642 641 640 638 635 632 628 625 622 620 617 615 612 610 607 604 601 597 595 592
580 580 581 583 585 587 589 592 595 597 599 602 605 607 611 614 617 621 624 625 627 630 632 635 637 640 642 644 646 646 647 648 649 650 651 650 649 648 648 647 647 646 644 642 642 640 638 636 633 629 626 624 621 619 616 614 612 609 606 604 601 598 595
578 578 579 580 582 584 587 590 593 595 597 600 603 606 609 612 616 619 621 623 626 628 630 632 635 638 640 642 644 645 646 647 648 650 650 650 650 649 648 648 647 646 644 643 643 641 639 637 634 631 628 626 623 621 619 617 615 612 610 608 605 601 598
577 577 577 578 580 583 585 588 591 593 595 598 601 603 606 609 612 615 618 621 624 627 629 631 634 636 638 641 642 644 645 646 648 649 650 650 650 649 647 647 647 646 645 644 643 642 640 638 636 633 630 628 626 624 622 621 618 616 614 611 608 606 602
Wind_Speed
34 34 32 32 33 35 35 34 33 32 31 30 29 28 26 24 23 23 22 22 22 23 23 23 22 22 22 21 20 20 19 18 17 18 18 19 19 19 20 22 18 12 14 23 29 32 34 34 34 34 33 32 34 35 34 34 34 34 34 35 36 35 34
33 33 32 33 34 35 35 35 34 33 31 30 30 29 27 25 24 24 23 23 23 24 24 24 24 24 23 22 21 21 21 21 20 20 21 21 21 22 23 24 23 17 12 17 25 29 31 32 31 31 31 32 34 36 37 36 34 33 33 33 34 35 34
32 32 32 33 34 35 35 35 34 34 32 32 31 29 28 27 26 25 25 25 25 25 24 24 25 25 24 23 22 23 23 23 24 24 24 24 24 24 25 25 25 21 15 14 20 25 27 27 27 29 32 34 35 35 35 34 32 31 32 32 33 34 34
31 32 33 33 32 34 36 35 35 34 33 32 31 30 29 28 27 27 26 26 26 26 25 25 25 25 24 23 23 24 25 24 24 25 24 24 24 24 26 27 26 24 21 17 19 25 26 26 27 29 33 34 33 32 30 30 31 30 31 32 31 32 34
30 32 33 32 32 33 35 35 35 33 32 32 32 31 30 28 27 28 27 27 27 27 27 26 27 26 24 23 24 24 25 24 24 25 24 25 26 25 25 26 25 25 24 21 22 26 26 26 28 29 31 31 30 29 29 29 29 29 29 30 29 30 31
30 32 32 31 31 32 32 34 34 33 32 32 31 31 30 28 28 28 28 27 27 27 27 27 28 27 24 24 25 25 25 26 26 27 27 27 27 25 25 25 24 26 24 22 24 27 27 26 27 28 28 28 26 28 29 28 28 27 25 25 26 29 30
30 32 31 30 31 30 31 33 33 33 32 31 31 30 29 28 29 29 28 27 27 27 28 28 28 27 26 25 25 26 27 27 27 27 28 28 26 25 25 23 24 24 19 18 22 25 24 25 26 27 27 27 26 26 26 25 25 24 23 22 24 28 31
30 31 30 30 30 30 31 32 32 32 32 31 31 31 30 29 30 29 28 27 26 27 28 28 28 28 27 26 26 27 28 28 28 29 29 29 27 25 23 21 22 21 16 17 23 23 23 24 25 26 26 27 26 22 19 21 22 23 24 25 26 26 28
30 29 28 29 31 30 30 31 32 32 32 32 31 30 30 30 30 29 28 27 27 27 27 28 29 28 26 25 25 26 27 27 28 28 29 28 25 22 21 20 21 19 16 19 21 20 22 22 21 23 25 25 23 19 19 23 23 24 26 28 28 27 25
28 29 30 30 31 30 30 31 32 33 32 31 31 31 30 31 30 29 28 27 26 26 26 27 27 27 26 23 22 23 24 25 24 24 24 24 22 20 19 19 19 18 17 19 20 20 20 15 12 20 26 25 25 24 24 26 23 23 26 25 24 24 23
27 29 30 31 30 30 30 31 32 32 30 28 29 30 30 31 30 29 29 29 28 26 25 24 25 25 24 22 21 23 24 23 22 23 24 24 23 21 20 20 20 18 18 20 20 19 16 10 11 21 27 26 25 25 26 26 24 24 24 19 12 13 16
27 28 30 31 30 30 30 31 31 30 28 27 27 27 28 30 30 30 30 30 28 26 24 22 22 22 22 21 21 22 23 23 24 25 24 23 23 22 22 22 22 22 21 22 20 17 16 16 18 22 25 24 25 26 26 26 25 23 21 16 11 11 16
27 27 28 29 30 30 30 30 30 29 27 27 27 26 26 28 29 29 30 30 27 25 23 21 20 19 20 20 19 20 21 23 24 24 23 23 24 24 23 22 23 23 23 22 22 21 23 26 24 23 27 29 27 27 27 26 24 20 17 17 16 17 23
27 27 28 29 30 30 29 30 30 28 26 26 26 27 27 27 28 28 29 29 27 25 23 21 20 19 19 20 20 20 21 22 23 23 23 24 24 24 24 23 22 22 21 22 24 25 28 31 29 28 33 34 30 28 29 27 23 17 15 19 22 24 29
27 27 28 29 29 29 28 29 29 27 26 26 26 26 27 26 26 27 29 28 26 25 23 21 21 21 21 20 20 20 20 20 21 21 22 23 23 23 24 23 21 20 21 24 26 26 28 29 29 29 32 32 30 30 29 27 25 23 22 24 25 25 27
26 27 28 29 28 28 27 28 27 25 26 27 26 26 27 25 24 25 27 28 26 24 23 22 21 21 21 21 21 21 19 18 18 19 21 21 21 23 23 23 22 21 22 23 23 24 26 27 28 29 29 30 29 28 28 28 27 26 23 20 18 16 18
26 27 27 27 28 28 28 29 27 25 26 27 26 26 26 25 23 23 24 25 24 23 22 22 21 21 21 21 21 20 17 15 16 17 17 18 21 23 22 24 27 26 22 19 20 23 26 26 26 26 25 26 25 24 25 25 22 20 17 12 10 9 11
25 25 26 27 29 29 29 30 28 26 26 26 26 26 26 24 23 22 22 22 21 22 23 22 20 19 19 20 19 17 15 15 14 15 17 18 20 19 20 25 28 26 22 22 25 27 28 26 24 22 22 22 21 20 21 20 19 20 16 9 7 7 10
24 24 24 26 29 28 27 29 28 25 25 26 26 26 26 24 22 21 21 21 20 21 21 21 20 18 17 17 15 14 14 13 13 14 16 16 14 15 20 24 22 20 22 27 29 28 27 24 21 20 20 20 18 18 18 18 20 21 17 12 9 9 9
23 23 23 25 28 27 27 28 28 26 25 26 26 26 25 24 23 22 21 20 20 21 20 21 21 19 17 14 13 14 13 12 13 13 13 12 12 16 19 18 18 20 23 26 27 26 24 22 21 21 21 20 19 18 18 19 20 20 20 17 14 13 10
22 22 22 23 25 27 27 28 28 27 26 26 27 27 26 25 25 24 22 21 20 21 21 21 20 19 17 13 12 13 13 11 11 11 10 12 15 15 15 15 20 23 23 22 22 22 22 23 23 24 23 21 20 19 19 21 22 21 21 20 19 17 12
20 19 20 20 22 24 25 26 27 26 25 25 26 27 26 25 25 25 24 22 20 21 21 20 19 18 16 13 11 12 12 10 9 8 9 12 12 10 12 15 19 19 18 18 19 21 22 24 24 25 24 22 21 21 22 23 24 23 22 21 22 23 19
17 17 17 17 19 21 23 24 25 25 25 25 26 26 26 25 24 24 24 23 23 22 21 19 17 15 13 11 10 11 9 6 5 6 8 8 8 9 11 14 14 14 15 17 19 20 22 23 23 24 24 23 23 24 24 24 25 24 22 20 20 22 24
15 15 14 15 16 18 20 21 23 24 24 25 25 25 25 23 22 22 23 23 23 21 18 16 15 13 11 9 8 7 5 3 3 4 5 5 6 9 11 11 11 14 16 18 19 19 20 22 23 24 24 24 25 25 24 24 24 23 21 18 16 16 18
14 14 14 14 14 15 17 20 21 23 23 23 23 24 23 22 21 20 21 21 20 17 16 15 12 8 6 6 5 6 6 6 3 1 2 4 5 8 9 9 10 14 17 18 18 18 19 22 23 23 23 23 23 22 22 23 24 24 22 18 13 11 10
13 13 13 13 13 14 16 18 20 22 23 23 22 22 22 22 20 19 19 18 17 15 14 12 9 7 6 5 6 7 6 5 3 1 2 3 5 6 7 9 11 14 16 17 17 18 20 21 22 22 21 21 22 22 22 23 24 24 23 20 16 11 9
12 12 12 12 12 13 15 17 18 19 21 23 21 21 22 22 20 19 18 16 15 16 15 12 9 7 7 6 5 5 4 3 3 2 2 3 4 6 8 10 11 12 14 15 16 18 19 20 21 21 22 22 22 23 23 23 22 22 22 21 17 12 11
13 14 14 13 13 14 13 14 17 19 22 25 25 23 23 22 20 19 19 18 18 19 16 13 10 9 9 9 7 5 4 4 2 0 1 3 4 6 8 10 10 11 13 15 16 17 19 20 20 21 22 23 23 23 24 23 22 21 21 21 17 10 10
17 18 18 18 17 16 13 13 18 23 25 28 28 26 25 25 23 21 20 20 21 20 16 12 11 11 11 10 8 7 6 5 3 2 3 4 6 8 9 11 13 14 15 15 16 18 19 20 20 20 22 23 22 23 24 22 20 20 22 21 16 10 10
20 20 21 20 20 20 19 19 22 23 23 23 24 24 24 25 25 23 21 21 21 20 16 13 12 12 12 11 10 10 8 7 5 4 4 5 7 9 11 13 14 15 16 16 16 17 18 18 19 20 21 22 21 22 24 23 20 20 21 20 16 10 11
20 20 19 20 20 20 20 20 19 19 20 22 23 23 23 22 22 23 23 23 22 19 16 15 15 14 13 12 12 11 9 8 6 5 5 6 8 10 11 13 14 15 15 16 17 18 18 18 19 19 20 21 20 20 22 23 22 21 20 20 17 11 11
17 18 18 18 19 19 18 18 17 17 20 22 23 23 23 22 22 23 23 24 23 19 16 16 17 16 15 14 13 12 10 8 7 6 6 6 8 10 11 12 13 13 15 16 17 18 18 19 19 19 20 20 20 20 20 21 22 22 20 19 17 13 13
15 16 16 17 18 18 18 18 18 18 19 21 22 24 24 23 23 24 24 24 23 20 18 18 18 17 17 17 15 13 11 9 7 6 6 6 7 9 10 10 10 11 13 16 16 17 18 19 20 20 20 21 21 21 20 20 21 21 20 18 16 13 13
12 13 14 16 18 19 19 18 17 18 20 21 22 23 24 23 23 23 24 24 23 21 20 19 19 18 18 18 16 13 12 10 9 7 6 6 6 7 9 9 9 10 13 15 16 17 18 19 21 21 21 22 22 22 22 21 21 21 20 19 17 14 14
9 9 9 12 15 18 20 19 18 18 20 22 22 23 24 24 22 22 22 22 22 22 21 22 21 20 20 19 17 14 13 11 10 8 7 6 6 7 8 9 9 11 13 14 16 17 18 19 21 22 21 21 21 22 22 21 22 22 20 19 19 15 16
7 7 6 8 11 15 19 21 19 18 21 22 23 25 26 24 21 20 20 21 22 21 21 21 22 21 21 20 18 15 13 11 10 9 8 6 6 7 9 9 10 10 12 13 14 16 17 19 20 22 22 22 22 22 21 21 22 21 20 21 20 17 18
Wind_Direction
221 222 222 221 220 220 222 224 225 225 225 226 227 227 227 227 225 223 222 223 226 227 229 231 234 236 239 241 241 246 254 258 263 268 269 271 270 270 273 272 270 273 284 289 291 292 295 299 304 305 303 304 305 305 305 303 300 299 297 296 297 296 296
223 222 222 220 219 220 222 224 225 224 224 225 227 227 226 225 224 222 221 222 227 229 230 233 236 239 238 238 242 248 253 257 261 266 268 269 268 269 272 269 268 272 280 290 293 293 295 299 302 301 300 304 303 303 304 302 300 300 299 298 298 297 296
223 221 219 216 217 219 222 224 224 224 225 226 227 226 226 225 224 223 221 222 226 228 230 233 236 238 236 237 245 251 254 256 260 264 266 265 264 265 270 269 267 270 275 283 292 294 295 298 299 297 299 302 301 300 301 301 300 302 302 300 299 298 296
223 220 217 214 214 218 221 222 222 224 226 227 228 228 227 226 225 225 224 223 226 228 229 233 235 237 239 242 246 249 252 256 260 265 265 265 267 266 267 269 267 268 272 278 289 291 291 294 296 296 298 300 300 299 300 301 301 301 302 300 299 298 296
220 218 216 214 214 217 219 222 223 224 225 227 229 230 230 228 227 228 227 226 228 229 230 233 237 240 243 244 246 248 253 259 263 266 267 267 268 265 264 268 271 272 271 272 282 288 289 292 292 293 297 298 300 302 303 301 300 299 300 300 299 299 299
217 217 217 216 217 217 219 223 224 224 225 225 227 230 231 231 231 231 230 229 230 232 233 235 238 242 244 245 249 252 257 264 266 266 265 263 263 265 269 271 273 274 271 268 277 285 288 290 291 293 296 298 300 303 303 301 300 299 297 299 302 304 302
217 218 219 219 219 217 219 223 224 226 226 225 225 226 228 231 234 234 234 233 233 235 236 239 241 244 247 249 252 257 262 267 268 265 263 264 268 273 273 268 271 274 270 270 279 284 285 288 291 292 294 298 301 300 298 298 301 302 299 301 305 305 303
220 220 220 221 220 218 220 223 223 225 226 226 225 224 225 230 234 235 237 237 237 239 240 243 246 248 251 252 256 263 266 266 266 264 265 270 274 273 267 264 271 276 271 276 283 283 285 288 290 292 294 299 302 298 295 298 299 300 300 302 304 301 300
221 220 220 222 221 220 221 221 221 223 224 225 225 224 225 229 233 234 237 239 239 241 243 246 249 250 252 256 260 264 265 263 263 262 263 268 271 266 261 263 271 273 271 280 285 283 286 288 287 291 297 299 298 294 295 299 297 294 296 299 300 297 296
221 220 220 222 222 221 220 220 221 223 223 223 225 226 227 229 232 234 236 239 240 241 244 246 249 252 254 258 260 261 262 265 267 268 270 273 274 269 264 264 267 268 270 280 285 283 285 287 285 293 296 294 293 294 295 296 294 291 293 296 295 292 293
221 220 220 222 222 220 220 220 221 222 221 221 223 227 229 231 233 235 235 238 239 241 244 246 249 254 257 258 258 259 263 268 272 276 278 278 278 275 272 272 273 274 276 279 280 280 282 285 289 294 294 290 292 295 294 291 291 288 289 290 289 289 292
221 220 220 222 223 222 222 221 222 222 220 220 221 224 230 234 234 234 234 236 239 241 244 246 250 255 257 257 259 261 267 274 277 278 279 277 277 277 275 277 279 281 283 279 279 288 292 291 292 291 290 288 289 292 293 292 289 282 275 271 270 275 281
223 222 221 222 222 223 224 223 223 221 219 221 222 221 226 232 232 232 233 234 237 239 242 245 249 253 254 256 260 264 271 277 279 280 281 280 280 279 278 280 281 281 280 280 289 297 292 288 286 283 282 284 285 289 293 291 285 277 268 267 272 277 280
223 223 222 222 222 223 224 224 222 220 218 220 222 223 225 229 230 231 232 233 235 237 239 242 246 250 255 260 264 269 275 278 280 283 285 284 282 282 284 287 286 283 281 284 291 288 281 282 283 280 284 288 290 291 290 286 286 288 285 283 284 285 286
223 223 223 223 223 222 223 224 221 218 218 219 221 223 226 227 227 229 232 232 232 234 237 240 244 250 258 263 268 274 279 280 284 287 286 284 283 285 289 289 285 284 288 290 289 283 281 287 290 289 292 295 296 294 291 290 294 297 297 295 292 290 288
223 224 224 223 223 221 222 224 221 217 219 221 221 223 226 226 225 227 231 231 229 230 235 239 244 251 257 264 272 278 279 279 283 284 281 281 284 287 288 285 282 288 293 291 289 288 290 294 297 297 297 298 298 298 298 299 299 298 301 303 299 295 289
223 224 225 223 221 220 222 224 222 217 218 220 221 223 225 225 223 222 227 229 226 228 233 238 245 251 258 266 273 277 279 279 279 279 279 281 283 283 282 284 292 298 298 292 290 293 296 299 301 301 300 301 303 302 302 303 301 302 310 306 293 294 292
222 223 224 223 222 220 221 225 223 217 218 220 221 221 223 223 221 221 223 225 224 227 234 240 245 250 257 264 270 273 277 279 280 282 283 279 277 281 288 295 301 303 301 299 299 299 301 303 302 304 307 309 308 304 304 304 300 300 303 292 278 292 294
219 221 223 224 224 222 220 224 223 217 216 219 220 220 222 221 218 219 222 222 223 228 235 241 246 248 252 260 269 275 278 279 282 283 279 273 277 294 301 302 302 302 305 307 306 307 311 312 311 314 319 320 316 310 305 299 294 292 286 274 275 283 286
217 219 222 223 224 223 222 224 225 220 217 220 220 219 220 218 214 216 220 220 222 228 234 240 246 247 249 258 271 276 277 278 282 282 279 283 296 301 301 301 299 302 308 309 309 313 319 322 327 329 329 330 325 317 311 302 296 291 281 271 268 266 263
216 217 221 222 221 222 222 224 225 223 219 220 221 219 218 216 214 215 218 218 222 228 233 239 243 243 248 261 271 273 275 279 282 285 290 296 297 297 300 303 301 303 308 311 315 323 327 330 333 333 332 332 326 320 317 310 304 299 288 275 264 258 254
215 215 219 221 220 220 221 223 224 223 219 219 220 219 217 217 216 216 217 216 219 226 233 240 243 244 252 265 269 269 273 279 284 292 295 295 298 305 308 303 300 306 317 324 331 337 335 332 332 330 330 331 328 327 327 318 313 310 302 289 273 261 251
213 212 215 219 219 219 220 221 221 221 219 219 220 218 216 218 218 216 215 216 219 227 236 240 240 244 255 266 266 266 272 284 297 297 295 299 310 313 305 301 307 324 335 340 346 345 335 330 329 328 329 331 331 333 332 324 320 319 313 304 291 274 260
209 207 210 216 218 217 217 217 218 218 217 216 218 217 215 217 216 212 213 219 223 229 236 237 237 246 258 262 259 258 259 272 301 305 308 319 320 309 305 312 329 344 350 353 353 344 330 326 330 330 330 332 334 336 334 328 328 330 328 322 311 294 277
205 206 211 214 215 214 212 212 213 214 213 212 214 215 215 216 213 205 206 215 221 227 232 232 231 235 239 237 233 236 246 257 268 336 345 332 321 317 321 334 346 355 359 358 351 338 326 326 333 335 335 339 342 343 341 338 337 339 344 347 341 326 307
204 206 212 215 214 211 208 206 207 209 210 209 210 212 213 214 212 203 200 207 216 218 215 209 205 205 207 213 227 238 248 250 233 229 307 317 326 336 349 0 2 2 4 359 347 335 329 330 335 341 346 352 354 351 348 347 343 342 347 355 356 352 348
209 208 209 211 211 207 204 202 201 201 202 203 205 207 206 207 210 208 200 195 194 191 187 187 188 189 188 186 200 225 234 214 208 241 302 339 357 6 16 19 15 11 11 4 348 336 333 336 343 350 356 360 360 357 356 355 351 347 349 355 359 357 357
212 212 211 209 205 202 199 197 196 197 199 201 201 201 199 199 204 204 196 188 182 178 181 190 191 181 181 188 196 205 199 184 180 168 27 33 32 30 28 25 22 21 20 12 357 344 341 345 352 357 1 3 3 1 1 360 356 352 353 358 5 9 358
220 218 216 212 207 201 192 191 200 205 205 203 201 198 196 197 197 195 191 189 188 184 181 186 189 186 190 197 198 188 174 162 147 112 78 56 47 40 31 27 25 22 20 14 3 354 350 350 355 0 3 5 4 2 4 4 358 355 358 1 4 5 357
233 231 224 218 214 209 205 208 213 210 203 200 200 198 197 196 194 193 191 189 190 189 185 181 182 187 191 191 186 178 163 147 136 115 90 67 53 43 34 30 28 23 20 17 9 1 357 355 358 3 5 7 4 1 5 7 2 358 1 2 356 349 354
239 237 228 221 218 215 212 214 213 204 194 195 198 198 195 191 189 189 189 188 188 187 184 182 180 181 185 186 181 172 155 139 130 112 91 75 58 48 38 31 28 23 21 20 13 6 4 3 5 8 8 8 6 2 3 7 7 5 5 4 360 352 352
243 240 233 223 217 212 211 209 203 195 194 196 196 196 194 189 185 183 182 186 192 189 184 184 183 180 181 181 173 163 151 139 130 115 97 78 61 53 43 33 29 25 24 24 17 8 6 8 11 14 15 13 12 9 6 7 8 7 5 3 3 360 359
255 248 241 230 215 205 205 207 201 193 194 195 194 194 192 187 185 182 178 181 189 188 182 184 186 182 182 181 171 160 152 142 133 122 102 79 66 61 52 40 33 30 31 31 23 13 10 12 14 18 20 19 18 16 13 10 9 8 7 5 2 355 355
264 256 246 235 220 202 193 195 197 195 194 194 192 191 188 182 180 181 180 182 188 188 182 183 185 183 182 178 169 160 155 148 141 134 117 96 83 77 67 54 43 38 37 34 27 20 18 17 19 23 23 22 21 20 18 14 11 10 10 8 3 352 349
273 271 252 231 220 203 188 184 190 195 194 191 189 187 181 175 173 174 175 180 187 189 186 185 185 184 181 176 169 163 159 153 147 144 134 113 97 88 79 66 52 44 41 35 28 25 22 20 23 27 28 27 26 23 20 15 11 10 11 8 5 359 354
276 289 266 220 208 201 188 178 181 191 193 189 188 183 175 169 170 171 170 174 183 188 189 188 187 185 181 176 170 165 161 157 155 153 145 125 104 93 82 70 57 49 46 40 33 28 25 24 27 28 29 31 31 27 24 19 13 12 14 12 9 7 3